TimeMDT,TemperatureF,Dew PointF,Humidity,Sea Level PressureIn,VisibilityMPH,Wind Direction,Wind SpeedMPH,Gust SpeedMPH,PrecipitationIn,Events,Conditions,WindDirDegrees,DateUTC
12:53 AM,64.9,50.0,58,29.96,10.0,SE,12.7,-,N/A,,Clear,140,2013-08-05 06:53:00
1:53 AM,64.0,50.0,60,29.96,10.0,SE,9.2,-,N/A,,Clear,130,2013-08-05 07:53:00
2:53 AM,63.0,50.0,63,29.96,10.0,SE,5.8,-,N/A,,Clear,130,2013-08-05 08:53:00
3:53 AM,57.0,48.0,72,29.96,10.0,Calm,Calm,-,N/A,,Clear,0,2013-08-05 09:53:00
4:53 AM,54.0,46.0,75,29.99,10.0,NW,6.9,-,N/A,,Clear,320,2013-08-05 10:53:00
5:53 AM,51.1,45.0,80,29.99,10.0,Calm,Calm,-,N/A,,Clear,0,2013-08-05 11:53:00
6:53 AM,52.0,45.0,77,29.99,10.0,Calm,Calm,-,N/A,,Clear,0,2013-08-05 12:53:00
7:53 AM,57.9,46.9,67,29.98,10.0,NW,5.8,-,N/A,,Clear,320,2013-08-05 13:53:00
8:53 AM,66.9,48.0,51,29.96,10.0,Calm,Calm,-,N/A,,Clear,0,2013-08-05 14:53:00
9:53 AM,73.0,48.9,42,29.93,10.0,Calm,Calm,-,N/A,,Clear,0,2013-08-05 15:53:00
10:53 AM,80.1,45.0,29,29.89,10.0,SSE,4.6,-,N/A,,Clear,150,2013-08-05 16:53:00
11:53 AM,86.0,34.0,16,29.86,10.0,Variable,6.9,-,N/A,,Clear,0,2013-08-05 17:53:00
12:53 PM,88.0,33.1,14,29.84,10.0,WSW,9.2,17.3,N/A,,Clear,250,2013-08-05 18:53:00
1:53 PM,90.0,30.0,12,29.82,10.0,West,17.3,21.9,N/A,,Clear,270,2013-08-05 19:53:00
2:53 PM,91.0,32.0,12,29.78,10.0,West,9.2,-,N/A,,Clear,260,2013-08-05 20:53:00
3:53 PM,93.0,30.9,11,29.76,10.0,West,20.7,27.6,N/A,,Clear,270,2013-08-05 21:53:00
4:14 PM,87.8,30.2,13,29.92,10.0,NNW,27.6,40.3,N/A,,Clear,330,2013-08-05 22:14:00
4:53 PM,82.9,36.0,19,29.85,10.0,WNW,10.4,28.8,N/A,,Scattered Clouds,290,2013-08-05 22:53:00
5:14 PM,80.6,37.4,21,29.99,10.0,NW,6.9,-,N/A,,Mostly Cloudy,310,2013-08-05 23:14:00
5:53 PM,80.1,43.0,27,29.85,10.0,North,16.1,-,0.00,Rain,Light Rain,10,2013-08-05 23:53:00
6:53 PM,81.0,37.9,21,29.86,10.0,NNW,3.5,-,0.00,,Clear,340,2013-08-06 00:53:00
7:53 PM,79.0,39.0,24,29.84,10.0,Variable,6.9,-,N/A,,Mostly Cloudy,0,2013-08-06 01:53:00
8:53 PM,68.0,39.0,35,29.85,10.0,South,5.8,-,N/A,,Clear,170,2013-08-06 02:53:00
9:53 PM,66.0,41.0,40,29.87,10.0,Calm,Calm,-,N/A,,Clear,0,2013-08-06 03:53:00
10:53 PM,64.0,42.1,45,29.89,10.0,Calm,Calm,-,N/A,,Clear,0,2013-08-06 04:53:00
11:53 PM,64.0,44.1,48,29.90,10.0,NE,6.9,-,N/A,,Clear,50,2013-08-06 05:53:00